THY2257 LTDA-LTFM

Flight info

Callsign THY2257
Flight time 1h 20m
Altitude 36000
Route MILBA UM861 BELSU UA17 BALAX UL605 YAVRU UL615 ERSEN
Aircraft A320/M-SDE3FGHIRWY/LB1

Departure

Time 2026-05-06 12:13
Airport Hatay Airport (LTDA)

Arrival

Time 2026-05-06 13:33
Airport İstanbul Airport (LTFM)
Time Latitude Longitude Altitude Speed Heading
2026-05-06 11:49 36.36205 36.28161 266 ft 0 kts 240°
2026-05-06 12:02 36.36210 36.28170 265 ft 4 kts 244°
2026-05-06 12:02 36.36219 36.28201 266 ft 4 kts 261°
2026-05-06 12:02 36.36221 36.28234 266 ft 4 kts 269°
2026-05-06 12:02 36.36223 36.28267 266 ft 4 kts 247°
2026-05-06 12:03 36.36233 36.28289 266 ft 4 kts 227°
2026-05-06 12:03 36.36252 36.28312 266 ft 4 kts 242°
2026-05-06 12:03 36.36252 36.28308 266 ft 4 kts 254°
2026-05-06 12:03 36.36248 36.28276 266 ft 4 kts 262°
2026-05-06 12:04 36.36243 36.28243 266 ft 4 kts 256°
2026-05-06 12:04 36.36236 36.28215 266 ft 1 kts 249°
2026-05-06 12:04 36.36235 36.28215 266 ft 0 kts 249°
2026-05-06 12:07 36.36231 36.28207 266 ft 1 kts 233°
2026-05-06 12:07 36.36220 36.28208 266 ft 2 kts 171°
2026-05-06 12:07 36.36212 36.28225 266 ft 3 kts 103°
2026-05-06 12:08 36.36211 36.28258 266 ft 5 kts 93°
2026-05-06 12:08 36.36209 36.28308 266 ft 7 kts 94°
2026-05-06 12:08 36.36185 36.28364 266 ft 8 kts 136°
2026-05-06 12:08 36.36141 36.28422 266 ft 10 kts 132°
2026-05-06 12:09 36.36087 36.28494 266 ft 12 kts 133°
2026-05-06 12:09 36.36010 36.28495 265 ft 14 kts 217°
2026-05-06 12:09 36.35932 36.28406 265 ft 16 kts 223°
2026-05-06 12:09 36.35843 36.28304 265 ft 19 kts 223°
2026-05-06 12:10 36.35743 36.28194 266 ft 20 kts 222°
2026-05-06 12:10 36.35637 36.28073 266 ft 22 kts 222°
2026-05-06 12:10 36.35520 36.27943 267 ft 23 kts 222°
2026-05-06 12:10 36.35393 36.27799 265 ft 26 kts 223°
2026-05-06 12:11 36.35322 36.27662 265 ft 15 kts 267°
2026-05-06 12:11 36.35266 36.27588 264 ft 12 kts 171°
2026-05-06 12:11 36.35267 36.27648 264 ft 8 kts 41°
2026-05-06 12:11 36.35277 36.27659 264 ft 0 kts 43°
2026-05-06 12:12 36.35329 36.27719 265 ft 38 kts 43°
2026-05-06 12:12 36.35701 36.28138 267 ft 103 kts 42°
2026-05-06 12:12 36.36359 36.28881 269 ft 150 kts 42°
2026-05-06 12:12 36.37192 36.29825 592 ft 164 kts 41°
2026-05-06 12:13 36.38062 36.30779 1119 ft 170 kts 41°
2026-05-06 12:13 36.38980 36.31745 1705 ft 176 kts 37°
2026-05-06 12:13 36.40011 36.32600 2189 ft 186 kts 31°
2026-05-06 12:13 36.41181 36.33469 2453 ft 207 kts 30°
2026-05-06 12:14 36.42501 36.34429 2734 ft 232 kts 30°
2026-05-06 12:14 36.43968 36.35493 3161 ft 255 kts 30°
2026-05-06 12:14 36.45509 36.36607 3900 ft 263 kts 28°
2026-05-06 12:14 36.47237 36.37373 4744 ft 267 kts
2026-05-06 12:15 36.49078 36.37778 5635 ft 270 kts
2026-05-06 12:15 36.50946 36.38182 6498 ft 274 kts
2026-05-06 12:15 36.52836 36.38592 7340 ft 277 kts
2026-05-06 12:15 36.54751 36.39007 8160 ft 281 kts
2026-05-06 12:16 36.56688 36.39429 8962 ft 284 kts
2026-05-06 12:16 36.58650 36.39861 9744 ft 288 kts
2026-05-06 12:16 36.60639 36.40302 10402 ft 297 kts
2026-05-06 12:16 36.62751 36.40770 10615 ft 320 kts
2026-05-06 12:17 36.64996 36.41269 11028 ft 333 kts
2026-05-06 12:17 36.67294 36.41781 11669 ft 338 kts
2026-05-06 12:17 36.69625 36.42297 12331 ft 343 kts
2026-05-06 12:17 36.71988 36.42820 12971 ft 347 kts
2026-05-06 12:18 36.74378 36.43348 13619 ft 350 kts
2026-05-06 12:18 36.76794 36.43881 14240 ft 354 kts
2026-05-06 12:18 36.79231 36.44419 14846 ft 357 kts
2026-05-06 12:18 36.81688 36.44962 15431 ft 361 kts
2026-05-06 12:19 36.84178 36.45512 15974 ft 365 kts
2026-05-06 12:19 36.86696 36.46066 16540 ft 369 kts
2026-05-06 12:19 36.89230 36.46625 17110 ft 372 kts
2026-05-06 12:19 36.91777 36.46989 17614 ft 375 kts
2026-05-06 12:20 36.94381 36.46694 18127 ft 378 kts 348°
2026-05-06 12:20 36.96898 36.45698 18658 ft 381 kts 335°
2026-05-06 12:20 36.99189 36.44029 19216 ft 383 kts 323°
2026-05-06 12:20 37.01296 36.41976 19779 ft 385 kts 322°
2026-05-06 12:21 37.03421 36.39902 20309 ft 389 kts 322°
2026-05-06 12:21 37.05565 36.37816 20800 ft 392 kts 322°
2026-05-06 12:21 37.07726 36.35715 21314 ft 394 kts 322°
2026-05-06 12:21 37.09893 36.33606 21843 ft 394 kts 322°
2026-05-06 12:22 37.12060 36.31496 22348 ft 395 kts 322°
2026-05-06 12:22 37.14243 36.29370 22805 ft 398 kts 322°
2026-05-06 12:22 37.16432 36.27232 23234 ft 400 kts 322°
2026-05-06 12:22 37.18638 36.25078 23661 ft 403 kts 322°
2026-05-06 12:23 37.20857 36.22910 24088 ft 406 kts 322°
2026-05-06 12:23 37.23089 36.20728 24474 ft 409 kts 322°
2026-05-06 12:23 37.25339 36.18527 24863 ft 412 kts 322°
2026-05-06 12:23 37.27577 36.16336 25249 ft 414 kts 322°
2026-05-06 12:24 37.29851 36.14106 25648 ft 416 kts 322°
2026-05-06 12:24 37.32142 36.11856 26034 ft 418 kts 322°
2026-05-06 12:24 37.34438 36.09601 26411 ft 420 kts 322°
2026-05-06 12:24 37.36752 36.07326 26779 ft 422 kts 322°
2026-05-06 12:25 37.39069 36.05040 27129 ft 425 kts 321°
2026-05-06 12:25 37.41398 36.02741 27464 ft 427 kts 321°
2026-05-06 12:25 37.43742 36.00430 27811 ft 429 kts 322°
2026-05-06 12:25 37.46100 35.98106 28138 ft 431 kts 321°
2026-05-06 12:26 37.48470 35.95767 28467 ft 434 kts 322°
2026-05-06 12:26 37.50862 35.93407 28761 ft 437 kts 322°
2026-05-06 12:26 37.53264 35.91036 29100 ft 440 kts 322°
2026-05-06 12:26 37.55677 35.88652 29428 ft 442 kts 321°
2026-05-06 12:27 37.58101 35.86252 29733 ft 445 kts 321°
2026-05-06 12:27 37.60542 35.83831 30018 ft 448 kts 321°
2026-05-06 12:27 37.63001 35.81389 30297 ft 451 kts 321°
2026-05-06 12:27 37.65467 35.78936 30662 ft 451 kts 321°
2026-05-06 12:28 37.67895 35.76518 31079 ft 450 kts 321°
2026-05-06 12:28 37.70352 35.74072 31497 ft 449 kts 321°
2026-05-06 12:28 37.72807 35.71632 31940 ft 448 kts 321°
2026-05-06 12:28 37.75255 35.69199 32320 ft 448 kts 321°
2026-05-06 12:29 37.77701 35.66766 32702 ft 447 kts 321°
2026-05-06 12:29 37.80145 35.64330 33117 ft 447 kts 321°
2026-05-06 12:29 37.82586 35.61892 33473 ft 447 kts 321°
2026-05-06 12:29 37.85027 35.59449 33813 ft 448 kts 321°
2026-05-06 12:30 37.87467 35.57002 34162 ft 448 kts 321°
2026-05-06 12:30 37.89907 35.54554 34519 ft 447 kts 321°
2026-05-06 12:30 37.92342 35.52111 34943 ft 445 kts 321°
2026-05-06 12:30 37.94766 35.49680 35299 ft 444 kts 321°
2026-05-06 12:31 37.97185 35.47255 35583 ft 444 kts 321°
2026-05-06 12:31 37.99612 35.44823 35840 ft 445 kts 321°
2026-05-06 12:31 38.02040 35.42384 35983 ft 446 kts 321°
2026-05-06 12:31 38.04472 35.39932 36010 ft 447 kts 321°
2026-05-06 12:32 38.09343 35.35013 36008 ft 447 kts 321°
2026-05-06 12:32 38.14203 35.30097 36009 ft 447 kts 321°
2026-05-06 12:33 38.19059 35.25181 36008 ft 446 kts 321°
2026-05-06 12:33 38.23880 35.20302 36009 ft 445 kts 321°
2026-05-06 12:34 38.28723 35.15384 36011 ft 445 kts 321°
2026-05-06 12:34 38.33562 35.10463 36016 ft 445 kts 321°
2026-05-06 12:35 38.38399 35.05536 36016 ft 446 kts 321°
2026-05-06 12:35 38.43257 35.00592 36009 ft 447 kts 321°
2026-05-06 12:36 38.48117 34.95642 36010 ft 448 kts 321°
2026-05-06 12:36 38.52992 34.90683 36014 ft 448 kts 321°
2026-05-06 12:37 38.57860 34.85713 36021 ft 448 kts 321°
2026-05-06 12:37 38.62722 34.80733 36023 ft 448 kts 321°
2026-05-06 12:38 38.67589 34.75740 36027 ft 447 kts 321°
2026-05-06 12:38 38.72408 34.70787 36030 ft 447 kts 321°
2026-05-06 12:39 38.77249 34.65804 36031 ft 446 kts 321°
2026-05-06 12:39 38.82084 34.60818 36025 ft 446 kts 321°
2026-05-06 12:40 38.86920 34.55829 36019 ft 446 kts 321°
2026-05-06 12:40 38.91764 34.50831 36019 ft 447 kts 321°
2026-05-06 12:41 38.96601 34.45813 36023 ft 446 kts 321°
2026-05-06 12:41 39.00616 34.41642 36026 ft 446 kts 321°
2026-05-06 12:42 39.06221 34.35808 36025 ft 446 kts 321°
2026-05-06 12:42 39.11041 34.30780 36022 ft 446 kts 321°
2026-05-06 12:43 39.14745 34.26112 36015 ft 445 kts 309°
2026-05-06 12:43 39.18691 34.20016 36015 ft 446 kts 310°
2026-05-06 12:44 39.22672 34.13880 36021 ft 446 kts 310°
2026-05-06 12:44 39.26657 34.07733 36022 ft 446 kts 309°
2026-05-06 12:45 39.30638 34.01579 36019 ft 446 kts 309°
2026-05-06 12:46 39.36580 33.92373 36022 ft 446 kts 309°
2026-05-06 12:46 39.40554 33.86199 36022 ft 446 kts 309°
2026-05-06 12:47 39.44515 33.80015 36025 ft 446 kts 309°
2026-05-06 12:47 39.48456 33.73808 36031 ft 446 kts 309°
2026-05-06 12:48 39.52344 33.67549 36032 ft 445 kts 308°
2026-05-06 12:48 39.56209 33.61271 36031 ft 445 kts 308°
2026-05-06 12:49 39.60092 33.55023 36029 ft 445 kts 309°
2026-05-06 12:49 39.64054 33.48848 36027 ft 444 kts 310°
2026-05-06 12:50 39.68020 33.42701 36029 ft 444 kts 309°
2026-05-06 12:50 39.71932 33.36583 36024 ft 443 kts 309°
2026-05-06 12:51 39.75886 33.30358 36016 ft 444 kts 309°
2026-05-06 12:51 39.79792 33.24200 36020 ft 444 kts 309°
2026-05-06 12:52 39.83726 33.17999 36014 ft 444 kts 309°
2026-05-06 12:52 39.87659 33.11779 36003 ft 445 kts 309°
2026-05-06 12:53 39.91594 33.05541 36005 ft 446 kts 309°
2026-05-06 12:53 39.95529 32.99299 36017 ft 446 kts 309°
2026-05-06 12:54 39.99460 32.93041 36021 ft 445 kts 309°
2026-05-06 12:54 40.03362 32.86821 36022 ft 445 kts 309°
2026-05-06 12:55 40.07268 32.80556 36018 ft 445 kts 308°
2026-05-06 12:55 40.10916 32.74017 36016 ft 445 kts 304°
2026-05-06 12:56 40.14368 32.67283 36022 ft 445 kts 303°
2026-05-06 12:56 40.17828 32.60574 36027 ft 445 kts 304°
2026-05-06 12:57 40.21341 32.53920 36023 ft 445 kts 304°
2026-05-06 12:57 40.24855 32.47307 36022 ft 445 kts 304°
2026-05-06 12:58 40.28380 32.40641 36022 ft 445 kts 304°
2026-05-06 12:58 40.31886 32.33963 36024 ft 445 kts 304°
2026-05-06 12:59 40.35385 32.27269 36015 ft 445 kts 304°
2026-05-06 12:59 40.38894 32.20569 36013 ft 445 kts 304°
2026-05-06 13:00 40.42404 32.13866 36007 ft 446 kts 304°
2026-05-06 13:00 40.45911 32.07127 36003 ft 447 kts 304°
2026-05-06 13:01 40.49414 32.00356 36009 ft 448 kts 304°
2026-05-06 13:01 40.52917 31.93578 36012 ft 449 kts 304°
2026-05-06 13:02 40.56405 31.86823 36011 ft 450 kts 304°
2026-05-06 13:02 40.59183 31.79495 36013 ft 449 kts 287°
2026-05-06 13:03 40.61103 31.71675 36017 ft 449 kts 288°
2026-05-06 13:03 40.63037 31.63857 36027 ft 448 kts 288°
2026-05-06 13:04 40.64970 31.56059 36028 ft 447 kts 288°
2026-05-06 13:04 40.66884 31.48270 36033 ft 446 kts 288°
2026-05-06 13:05 40.68779 31.40509 36030 ft 445 kts 288°
2026-05-06 13:05 40.70670 31.32751 35891 ft 445 kts 288°
2026-05-06 13:05 40.71618 31.28833 34960 ft 453 kts 288°
2026-05-06 13:06 40.72581 31.24849 34197 ft 456 kts 288°
2026-05-06 13:06 40.73542 31.20889 33706 ft 452 kts 288°
2026-05-06 13:06 40.74498 31.16950 33201 ft 449 kts 288°
2026-05-06 13:06 40.75253 31.13024 32497 ft 450 kts 277°
2026-05-06 13:07 40.75571 31.08962 32165 ft 441 kts 276°
2026-05-06 13:07 40.75900 31.04960 31706 ft 437 kts 276°
2026-05-06 13:07 40.76244 31.00990 31181 ft 434 kts 276°
2026-05-06 13:07 40.76591 30.97045 30590 ft 433 kts 276°
2026-05-06 13:08 40.76930 30.93131 30148 ft 427 kts 276°
2026-05-06 13:08 40.77259 30.89244 29629 ft 425 kts 276°
2026-05-06 13:08 40.77581 30.85381 29182 ft 420 kts 276°
2026-05-06 13:08 40.77895 30.81567 28749 ft 415 kts 276°
2026-05-06 13:09 40.78199 30.77800 28319 ft 410 kts 276°
2026-05-06 13:09 40.78497 30.74072 27900 ft 406 kts 276°
2026-05-06 13:09 40.78792 30.70393 27482 ft 402 kts 276°
2026-05-06 13:09 40.79086 30.66747 27070 ft 397 kts 276°
2026-05-06 13:10 40.79376 30.63131 26655 ft 394 kts 276°
2026-05-06 13:10 40.79659 30.59555 26246 ft 390 kts 276°
2026-05-06 13:10 40.79932 30.56046 25829 ft 388 kts 276°
2026-05-06 13:10 40.80209 30.52517 25414 ft 385 kts 276°
2026-05-06 13:11 40.80485 30.49009 24980 ft 383 kts 276°
2026-05-06 13:11 40.80760 30.45530 24556 ft 380 kts 276°
2026-05-06 13:11 40.81031 30.42074 24124 ft 377 kts 276°
2026-05-06 13:11 40.81301 30.38639 23687 ft 375 kts 276°
2026-05-06 13:12 40.81565 30.35226 23244 ft 373 kts 276°
2026-05-06 13:12 40.81825 30.31830 22814 ft 370 kts 276°
2026-05-06 13:12 40.82081 30.28465 22376 ft 367 kts 276°
2026-05-06 13:12 40.82336 30.25116 21943 ft 365 kts 276°
2026-05-06 13:13 40.82591 30.21790 21506 ft 362 kts 276°
2026-05-06 13:13 40.82843 30.18498 21070 ft 359 kts 276°
2026-05-06 13:13 40.83090 30.15268 20645 ft 357 kts 276°
2026-05-06 13:13 40.83333 30.12015 20224 ft 354 kts 275°
2026-05-06 13:14 40.83574 30.08789 19798 ft 352 kts 275°
2026-05-06 13:14 40.83813 30.05580 19372 ft 350 kts 275°
2026-05-06 13:14 40.84049 30.02395 18948 ft 347 kts 275°
2026-05-06 13:14 40.84284 29.99233 18529 ft 345 kts 275°
2026-05-06 13:15 40.84519 29.96098 18111 ft 342 kts 276°
2026-05-06 13:15 40.84754 29.92975 17697 ft 340 kts 275°
2026-05-06 13:15 40.84984 29.89879 17286 ft 338 kts 275°
2026-05-06 13:15 40.85209 29.86801 16872 ft 336 kts 275°
2026-05-06 13:16 40.85430 29.83740 16469 ft 334 kts 275°
2026-05-06 13:16 40.85649 29.80698 16065 ft 332 kts 275°
2026-05-06 13:16 40.85868 29.77675 15661 ft 330 kts 275°
2026-05-06 13:16 40.86084 29.74662 15263 ft 328 kts 275°
2026-05-06 13:17 40.86297 29.71670 14864 ft 326 kts 275°
2026-05-06 13:17 40.86509 29.68699 14472 ft 325 kts 275°
2026-05-06 13:17 40.86722 29.65733 14077 ft 323 kts 275°
2026-05-06 13:17 40.86933 29.62786 13686 ft 321 kts 275°
2026-05-06 13:18 40.87144 29.59849 13294 ft 320 kts 275°
2026-05-06 13:18 40.87345 29.56969 12908 ft 319 kts 275°
2026-05-06 13:18 40.87546 29.54059 12523 ft 317 kts 275°
2026-05-06 13:18 40.87748 29.51162 12133 ft 316 kts 275°
2026-05-06 13:19 40.87953 29.48281 11747 ft 314 kts 275°
2026-05-06 13:19 40.88156 29.45412 11350 ft 313 kts 275°
2026-05-06 13:19 40.88357 29.42556 10972 ft 312 kts 275°
2026-05-06 13:19 40.88557 29.39711 10602 ft 310 kts 275°
2026-05-06 13:20 40.88750 29.36919 10463 ft 300 kts 275°
2026-05-06 13:20 40.88935 29.34199 10237 ft 294 kts 275°
2026-05-06 13:20 40.89116 29.31520 9917 ft 292 kts 275°
2026-05-06 13:20 40.89293 29.28853 9576 ft 291 kts 275°
2026-05-06 13:21 40.89470 29.26203 9243 ft 289 kts 275°
2026-05-06 13:21 40.89647 29.23561 8913 ft 288 kts 275°
2026-05-06 13:21 40.89825 29.20931 8588 ft 286 kts 275°
2026-05-06 13:21 40.90000 29.18321 8261 ft 285 kts 275°
2026-05-06 13:22 40.90175 29.15716 7942 ft 283 kts 275°
2026-05-06 13:22 40.90347 29.13142 7628 ft 282 kts 275°
2026-05-06 13:22 40.90516 29.10584 7300 ft 281 kts 275°
2026-05-06 13:22 40.90683 29.08024 6989 ft 279 kts 275°
2026-05-06 13:23 40.90847 29.05510 6865 ft 270 kts 275°
2026-05-06 13:23 40.91008 29.03079 6734 ft 261 kts 275°
2026-05-06 13:23 40.91036 29.00713 6609 ft 253 kts 262°
2026-05-06 13:23 40.90636 28.98488 6442 ft 246 kts 254°
2026-05-06 13:24 40.90176 28.96320 6187 ft 244 kts 255°
2026-05-06 13:24 40.89723 28.94159 5907 ft 243 kts 255°
2026-05-06 13:24 40.89274 28.92018 5669 ft 239 kts 255°
2026-05-06 13:24 40.88832 28.89921 5617 ft 237 kts 255°
2026-05-06 13:25 40.88391 28.87825 5552 ft 237 kts 255°
2026-05-06 13:25 40.87950 28.85727 5491 ft 237 kts 255°
2026-05-06 13:25 40.87581 28.83613 5421 ft 236 kts 267°
2026-05-06 13:25 40.87857 28.81502 5368 ft 236 kts 295°
2026-05-06 13:26 40.88848 28.79799 5307 ft 236 kts 323°
2026-05-06 13:26 40.90268 28.78771 5246 ft 237 kts 334°
2026-05-06 13:26 40.91754 28.77831 5180 ft 237 kts 334°
2026-05-06 13:26 40.93223 28.76855 5113 ft 237 kts 331°
2026-05-06 13:27 40.94649 28.75777 5006 ft 236 kts 329°
2026-05-06 13:27 40.96054 28.74658 4929 ft 235 kts 328°
2026-05-06 13:27 40.97471 28.73679 4928 ft 224 kts 341°
2026-05-06 13:27 40.98955 28.73320 4926 ft 211 kts 358°
2026-05-06 13:28 41.00395 28.73285 4931 ft 205 kts 358°
2026-05-06 13:28 41.01821 28.73250 4920 ft 205 kts 358°
2026-05-06 13:28 41.03247 28.73220 4730 ft 204 kts 358°
2026-05-06 13:28 41.04665 28.73193 4481 ft 204 kts 359°
2026-05-06 13:29 41.06084 28.73165 4219 ft 204 kts 359°
2026-05-06 13:29 41.07508 28.73138 3946 ft 205 kts 359°
2026-05-06 13:29 41.08936 28.73110 3675 ft 206 kts 359°
2026-05-06 13:29 41.10369 28.73083 3402 ft 207 kts 359°
2026-05-06 13:30 41.11813 28.73055 3124 ft 208 kts 359°
2026-05-06 13:30 41.13257 28.73027 2848 ft 208 kts 359°
2026-05-06 13:30 41.14705 28.72999 2575 ft 207 kts 359°
2026-05-06 13:30 41.16118 28.72972 2317 ft 198 kts 359°
2026-05-06 13:31 41.17451 28.72946 2043 ft 184 kts 359°
2026-05-06 13:31 41.18691 28.72922 1801 ft 173 kts 358°
2026-05-06 13:31 41.19474 28.72907 1651 ft 167 kts 358°
2026-05-06 13:31 41.20604 28.72885 1449 ft 157 kts 358°
2026-05-06 13:32 41.21664 28.72864 1263 ft 147 kts 358°
2026-05-06 13:32 41.22676 28.72845 1048 ft 143 kts 358°
2026-05-06 13:32 41.23667 28.72826 851 ft 142 kts 358°
2026-05-06 13:32 41.24650 28.72809 679 ft 141 kts 359°
2026-05-06 13:33 41.25628 28.72791 512 ft 140 kts 359°
2026-05-06 13:33 41.26606 28.72784 336 ft 137 kts
2026-05-06 13:33 41.27346 28.72751 331 ft 65 kts 358°
2026-05-06 13:33 41.27617 28.72743 333 ft 34 kts 357°
2026-05-06 13:34 41.27856 28.72740 330 ft 35 kts
2026-05-06 13:34 41.28047 28.72815 333 ft 15 kts 31°
2026-05-06 13:34 41.28078 28.72845 334 ft 0 kts 36°
2026-05-06 13:34 41.28081 28.72848 334 ft 0 kts 36°
2026-05-06 13:36 41.28085 28.72852 334 ft 2 kts 36°
2026-05-06 13:36 41.28103 28.72867 331 ft 4 kts 31°
2026-05-06 13:36 41.28131 28.72897 329 ft 6 kts 58°
2026-05-06 13:37 41.28118 28.72953 330 ft 7 kts 143°
2026-05-06 13:37 41.28059 28.72961 332 ft 10 kts 178°
2026-05-06 13:37 41.27983 28.72963 332 ft 12 kts 179°
2026-05-06 13:37 41.27888 28.72965 334 ft 15 kts 179°
2026-05-06 13:38 41.27775 28.72969 334 ft 18 kts 180°
2026-05-06 13:38 41.27644 28.72972 334 ft 20 kts 179°
2026-05-06 13:38 41.27509 28.72975 333 ft 17 kts 179°
2026-05-06 13:38 41.27404 28.72977 334 ft 14 kts 179°
2026-05-06 13:39 41.27297 28.72980 333 ft 17 kts 179°
2026-05-06 13:39 41.27170 28.72983 331 ft 19 kts 179°